Location: Casteau
(50.5142°N, 4.0161°E)
Time: 03:02:00
(UTC+00:00)

Transit 2A - Pass Details

Date: 02 August 2021
Orbit: 594 x 964 km, 66.7° (Epoch: 27 September)

Event Time Altitude Azimuth Distance (km) Brightness Sun altitude
Rises 09:51:19 0° 303° (WNW) 3,006 8.7 49.5°
Reaches altitude 10° 09:54:57 10° 333° (NNW) 2,172 8.1 49.9°
Maximum altitude 09:57:07 13° 359° (N) 2,041 8.1 50.1°
Drops below altitude 10° 09:59:23 10° 26° (NNE) 2,277 8.4 50.4°
Sets 10:03:25 0° 54° (NE) 3,304 9.3 50.8°
